Starlink 30347

operational
NORAD ID: 57699 Int'l Des: 2023-129 Owner: SPXS Country: US Constellation: starlink
LEOCIRCULAR

Über Starlink 30347

Beschreibung wird geladen...

Live-Position

3D-Globus wird geladen...

Nächste Überflüge

Höhenverlauf

Altitude vs Time

uPlot chart will show altitude changes over time

Zweizeiliger Elementsatz

1 57699U 23129B 25303.75148928 .00000444 00000-0 47956-4 0 9997
2 57699 43.0034 93.9555 0001259 273.3990 86.6709 15.02534327121257
Epoch: 30. Okt. 2025 • Age: 30 hours

Aktueller Status

Höhe 558.3 km
Geschwindigkeit 7.59 km/s
Subsatellitenpunkt 13.86°N, 55.17°E
Startdatum 27. Aug. 2023
Alter 2.1 years
Typ internet

Technische Details

Klassifizierung Payload
Masse 730.00 kg
Trockenmasse 700.00 kg
Gesamtmasse 730.00 kg
Länge 0.30 m
Durchmesser 4.10 m
Spannweite 29.00 m
Form Box + pan
Hersteller SPXS
Bus-Typ Starlink V2M
Phasenstatus In Orbit
Besitzer/Staat SPXS/US

Große Konstellationen

Loading constellations...